• In Belarus
  • List of Countries
  • For 7 days
  • Water Temperature
  • Satellite Maps
  • Weather Map
  • Weather Widgets
  • user-avatar
    Login

    Hourly Weather Canillo

    Today, 22 August, Tuesday

    Time Temperature Precipitation Wind Pressure Humidity
    00:00 +13°C° 0 mm 1 mps 623 mmHg 67%
    01:00 +13°C° 0 mm 1 mps 622 mmHg 67%
    02:00 +13°C° 0 mm 1 mps 622 mmHg 67%
    03:00 +13°C° 0 mm 1 mps 622 mmHg 67%
    04:00 +13°C° 0 mm 1 mps 622 mmHg 66%
    05:00 +13°C° 0 mm 1 mps 622 mmHg 66%
    06:00 +13°C° 0 mm 1 mps 622 mmHg 66%
    07:00 +16°C° 0 mm 1 mps 624 mmHg 56%
    08:00 +20°C° 0 mm 2 mps 625 mmHg 46%
    09:00 +24°C° 0 mm 2 mps 626 mmHg 36%
    10:00 +25°C° 0 mm 2 mps 626 mmHg 33%
    11:00 +26°C° 0 mm 2 mps 627 mmHg 30%
    12:00 +27°C° 0 mm 2 mps 627 mmHg 27%
    13:00 +27°C° 0 mm 2 mps 627 mmHg 27%
    14:00 +27°C° 0 mm 2 mps 626 mmHg 28%
    15:00 +27°C° 0 mm 2 mps 626 mmHg 28%
    16:00 +25°C° 0 mm 2 mps 625 mmHg 36%
    17:00 +23°C° 0 mm 1 mps 625 mmHg 45%
    18:00 +21°C° 0 mm 1 mps 624 mmHg 53%
    19:00 +19°C° 0 mm 1 mps 624 mmHg 59%
    20:00 +16°C° 0 mm 1 mps 623 mmHg 65%
    21:00 +15°C° 0 mm 1 mps 623 mmHg 71%
    22:00 +14°C° 0 mm 1 mps 623 mmHg 71%
    23:00 +14°C° 0 mm 1 mps 623 mmHg 72%

    Tomorrow, 23 August, Wednesday

    Time Temperature Precipitation Wind Pressure Humidity
    00:00 +14°C° 0 mm 1 mps 622 mmHg 72%
    01:00 +13°C° 0 mm 1 mps 622 mmHg 72%
    02:00 +13°C° 0 mm 1 mps 622 mmHg 72%
    03:00 +13°C° 0 mm 1 mps 622 mmHg 72%
    04:00 +13°C° 0 mm 1 mps 622 mmHg 71%
    05:00 +13°C° 0 mm 1 mps 622 mmHg 70%
    06:00 +14°C° 0 mm 1 mps 623 mmHg 70%
    07:00 +16°C° 0.1 mm 1 mps 624 mmHg 62%
    08:00 +19°C° 0.1 mm 1 mps 625 mmHg 55%
    09:00 +21°C° 0.1 mm 2 mps 626 mmHg 47%
    10:00 +23°C° 0.1 mm 2 mps 626 mmHg 44%
    11:00 +24°C° 0.1 mm 2 mps 626 mmHg 42%
    12:00 +25°C° 0.1 mm 2 mps 626 mmHg 39%
    13:00 +25°C° 0.1 mm 2 mps 626 mmHg 39%
    14:00 +25°C° 0.1 mm 2 mps 626 mmHg 39%
    15:00 +25°C° 0.1 mm 2 mps 625 mmHg 40%
    16:00 +23°C° 0.1 mm 2 mps 625 mmHg 46%
    17:00 +21°C° 0.1 mm 2 mps 624 mmHg 53%
    18:00 +20°C° 0.1 mm 1 mps 624 mmHg 60%
    19:00 +19°C° 0.2 mm 1 mps 623 mmHg 63%
    20:00 +16°C° 0.2 mm 1 mps 623 mmHg 67%
    21:00 +15°C° 0.2 mm 1 mps 622 mmHg 71%
    22:00 +14°C° 0.3 mm 1 mps 622 mmHg 73%
    23:00 +14°C° 0.3 mm 1 mps 622 mmHg 76%

    Day after tomorrow, 24 August, Thursday

    Time Temperature Precipitation Wind Pressure Humidity
    00:00 +13°C° 0.3 mm 1 mps 622 mmHg 78%
    01:00 +13°C° 0.1 mm 1 mps 622 mmHg 76%
    02:00 +13°C° 0.1 mm 1 mps 622 mmHg 74%
    03:00 +13°C° 0.1 mm 1 mps 622 mmHg 72%
    04:00 +13°C° 0 mm 1 mps 622 mmHg 71%
    05:00 +13°C° 0 mm 1 mps 622 mmHg 69%
    06:00 +13°C° 0 mm 1 mps 622 mmHg 68%
    07:00 +16°C° 0 mm 1 mps 623 mmHg 59%
    08:00 +19°C° 0 mm 2 mps 624 mmHg 50%
    09:00 +21°C° 0 mm 2 mps 625 mmHg 41%
    10:00 +23°C° 0 mm 2 mps 626 mmHg 38%
    11:00 +25°C° 0 mm 3 mps 626 mmHg 36%
    12:00 +26°C° 0 mm 3 mps 626 mmHg 33%
    13:00 +26°C° 0 mm 3 mps 626 mmHg 33%
    14:00 +26°C° 0 mm 3 mps 625 mmHg 33%
    15:00 +26°C° 0 mm 3 mps 625 mmHg 33%
    16:00 +24°C° 0 mm 3 mps 624 mmHg 38%
    17:00 +21°C° 0 mm 3 mps 624 mmHg 44%
    18:00 +20°C° 0 mm 2 mps 623 mmHg 49%
    19:00 +18°C° 0 mm 2 mps 623 mmHg 52%
    20:00 +16°C° 0 mm 2 mps 622 mmHg 54%
    21:00 +14°C° 0 mm 2 mps 622 mmHg 57%
    22:00 +14°C° 0 mm 2 mps 622 mmHg 55%
    23:00 +14°C° 0 mm 2 mps 621 mmHg 54%

    25 August, Friday

    Time Temperature Precipitation Wind Pressure Humidity
    00:00 +13°C° 0 mm 2 mps 621 mmHg 52%
    01:00 +13°C° 0 mm 2 mps 621 mmHg 52%
    02:00 +13°C° 0 mm 2 mps 621 mmHg 53%
    03:00 +13°C° 0 mm 2 mps 620 mmHg 53%
    04:00 +13°C° 0 mm 2 mps 620 mmHg 53%
    05:00 +13°C° 0 mm 2 mps 620 mmHg 53%
    06:00 +13°C° 0 mm 2 mps 620 mmHg 53%
    07:00 +16°C° 0 mm 2 mps 621 mmHg 48%
    08:00 +18°C° 0 mm 2 mps 622 mmHg 43%
    09:00 +20°C° 0 mm 3 mps 624 mmHg 38%
    10:00 +22°C° 0 mm 3 mps 624 mmHg 35%
    11:00 +24°C° 0 mm 3 mps 624 mmHg 31%
    12:00 +26°C° 0 mm 4 mps 624 mmHg 28%
    13:00 +25°C° 0 mm 4 mps 624 mmHg 29%
    14:00 +25°C° 0 mm 4 mps 623 mmHg 31%
    15:00 +24°C° 0 mm 3 mps 623 mmHg 33%
    16:00 +22°C° 0 mm 3 mps 622 mmHg 38%
    17:00 +21°C° 0 mm 3 mps 622 mmHg 44%
    18:00 +19°C° 0 mm 3 mps 621 mmHg 49%
    19:00 +18°C° 0 mm 3 mps 621 mmHg 53%
    20:00 +16°C° 0 mm 2 mps 620 mmHg 57%
    21:00 +14°C° 0 mm 2 mps 620 mmHg 60%
    22:00 +14°C° 0 mm 2 mps 619 mmHg 55%
    23:00 +14°C° 0 mm 2 mps 619 mmHg 50%

    26 August, Saturday

    Time Temperature Precipitation Wind Pressure Humidity
    00:00 +13°C° 0 mm 2 mps 619 mmHg 45%
    01:00 +13°C° 0 mm 2 mps 619 mmHg 46%
    02:00 +13°C° 0 mm 2 mps 619 mmHg 47%
    03:00 +13°C° 0 mm 2 mps 618 mmHg 48%
    04:00 +13°C° 0.2 mm 2 mps 618 mmHg 53%
    05:00 +13°C° 0.2 mm 2 mps 618 mmHg 58%
    06:00 +12°C° 0.2 mm 2 mps 618 mmHg 63%
    07:00 +15°C° 0.1 mm 2 mps 619 mmHg 57%
    08:00 +18°C° 0.1 mm 3 mps 621 mmHg 51%
    09:00 +21°C° 0.1 mm 3 mps 622 mmHg 45%
    10:00 +22°C° 0 mm 4 mps 622 mmHg 41%
    11:00 +23°C° 0 mm 4 mps 622 mmHg 38%
    12:00 +25°C° 0 mm 5 mps 622 mmHg 34%
    13:00 +25°C° 0.2 mm 4 mps 622 mmHg 38%
    14:00 +25°C° 0.2 mm 4 mps 621 mmHg 41%
    15:00 +25°C° 0.2 mm 4 mps 621 mmHg 44%
    16:00 +22°C° 0.3 mm 4 mps 620 mmHg 51%
    17:00 +20°C° 0.3 mm 3 mps 619 mmHg 58%
    18:00 +19°C° 0.3 mm 3 mps 619 mmHg 65%
    19:00 +17°C° 0.1 mm 2 mps 618 mmHg 69%
    20:00 +16°C° 0.1 mm 2 mps 618 mmHg 73%
    21:00 +14°C° 0.1 mm 2 mps 618 mmHg 77%
    22:00 +14°C° 0 mm 2 mps 618 mmHg 76%
    23:00 +13°C° 0 mm 2 mps 618 mmHg 75%

    27 August, Sunday

    Time Temperature Precipitation Wind Pressure Humidity
    00:00 +13°C° 0 mm 2 mps 617 mmHg 74%
    01:00 +12°C° 0 mm 1 mps 617 mmHg 72%
    02:00 +12°C° 0 mm 1 mps 617 mmHg 71%
    03:00 +12°C° 0 mm 1 mps 617 mmHg 69%
    04:00 +12°C° 0.1 mm 1 mps 617 mmHg 68%
    05:00 +12°C° 0.1 mm 1 mps 617 mmHg 67%
    06:00 +13°C° 0.1 mm 1 mps 617 mmHg 65%
    07:00 +15°C° 0.3 mm 2 mps 618 mmHg 61%
    08:00 +17°C° 0.3 mm 2 mps 619 mmHg 57%
    09:00 +19°C° 0.3 mm 2 mps 619 mmHg 53%
    10:00 +20°C° 0.1 mm 3 mps 620 mmHg 50%
    11:00 +21°C° 0.1 mm 4 mps 620 mmHg 47%
    12:00 +22°C° 0.1 mm 4 mps 620 mmHg 44%
    13:00 +21°C° 0.3 mm 4 mps 620 mmHg 45%
    14:00 +21°C° 0.3 mm 4 mps 619 mmHg 47%
    15:00 +20°C° 0.3 mm 4 mps 619 mmHg 48%
    16:00 +19°C° 0.3 mm 3 mps 619 mmHg 54%
    17:00 +17°C° 0.3 mm 3 mps 619 mmHg 60%
    18:00 +16°C° 0.3 mm 2 mps 618 mmHg 66%
    19:00 +14°C° 0.1 mm 2 mps 618 mmHg 69%
    20:00 +13°C° 0.1 mm 1 mps 618 mmHg 72%
    21:00 +12°C° 0.1 mm 1 mps 618 mmHg 75%
    22:00 +12°C° 0 mm 1 mps 618 mmHg 76%
    23:00 +11°C° 0 mm 1 mps 618 mmHg 77%
    Show more